Location: Lucerne Valley
(34.4439°N, 116.9669°E)
Time: 22:50:14
(UTC-07:00)

Envisat - Pass Details

Date: 09 October 2017
Orbit: 764 x 766 km, 98.2° (Epoch: 17 October)

Event Time Altitude Azimuth Distance (km) Brightness Sun altitude
Exits shadow 03:42:43 12° 58° (ENE) 2,148 4.8 -12.6°
Drops below altitude 10° 03:44:16 10° 40° (NE) 2,303 5.1 -12.9°
Sets 03:47:59 0° 12° (NNE) 3,234 6.1 -13.6°
